Regional Weather Roundup
Issued by NWS Sterling, VA

Home | Current Version | Previous Version | Text Only | Print | Product List | Glossary Off
Versions: 1 2 3 4 5 6 7 8 9 10 11 12 13 14 15 16 17 18 19 20 21 22 23 24 25 26 27 28 29 30 31 32 33 34 35 36 37 38 39 40 41 42 43 44 45 46 47 48 49 50

000
ASUS41 KLWX 301010
RWRLWX

REGIONAL WEATHER ROUNDUP
NATIONAL WEATHER SERVICE BALTIMORE MD/WASHINGTON DC
600 AM EDT THU JUL 30 2015

Note: "FAIR" indicates few or no clouds below 12,000 feet
with no significant weather and/or obstructions to visibility.
 TC=TEMPERATURE CELSIUS

 * =Non NWS site. Station does not report precipitation (e.g. rain,
    snow, etc.), thunder, or fog.

DCZ001-MDZ009-015-VAZ040>042-051-053>054-301100-
WASHINGTON METRO

CITY           SKY/WX    TMP DP  RH WIND       PRES   REMARKS
WASHINGTON NAT MOCLDY    80  73  79 S14       29.92R
DULLES         MOCLDY    75  72  90 S8        29.92R
ANDREWS AFB    PTCLDY    75  72  89 S8        29.92R
FT BELVOIR     CLEAR     75  73  94 SE6       29.92R
QUANTICO       PTCLDY    78  72  81 SW12      29.93R
COLLEGE PARK*  PTCLDY    79  73  83 S3        29.91S
LEESBURG*      PTCLDY    75  75 100 S10       29.93R
MANASSAS*      CLEAR     75  73  94 S6        29.92R
GAITHERSBURG*  PTCLDY    75  72  88 CALM      29.96R

$$

MDZ006>007-011-014-301100-
BALTIMORE METRO

CITY           SKY/WX    TMP DP  RH WIND       PRES   REMARKS
BWI AIRPORT    MOCLDY    76  73  91 VRB5      29.91S
MD SCIENCE CTR   N/A     77  73  87 MISG      29.91S
MARTIN STATE   MOCLDY    79  75  89 S6        29.92S
ANNAPOLIS      CLEAR     77  70  79 S7        29.91S
FORT MEADE*    PTCLDY    72  70  94 S3        29.94S

$$

MDZ012-015-019>023-301100-
MARYLAND EASTERN SHORE

CITY           SKY/WX    TMP DP  RH WIND       PRES   REMARKS
OCEAN CITY     PTCLDY    77  73  87 SW7       29.95F
SALISBURY      CLEAR     74  72  93 S3        29.95S
BAY BRIDGE AP*   N/A     79  72  78 S7        29.92S
CAMBRIDGE*     CLEAR     79  72  78 S3        29.94R
EASTON*        PTCLDY    79  75  89 SW8       29.97S

$$

MDZ017>025-301100-
SOUTHERN MARYLAND

CITY           SKY/WX    TMP DP  RH WIND       PRES   REMARKS
PATUXENT RIVER PTCLDY    76  72  87 SW9       29.93S
ST INIGOES     PTCLDY    77  72  84 S7        29.93S
LEONARDTOWN*   CLEAR     73  70  88 CALM      29.95F

$$

MDZ003>005-301100-
NORTH CENTRAL MARYLAND

CITY           SKY/WX    TMP DP  RH WIND       PRES   REMARKS
FREDERICK*     MOCLDY    73  73 100 CALM      29.94R
HAGERSTOWN APT MOCLDY    77  73  87 S3        29.91S
WESTMINSTER*   PTCLDY    75  73  94 S5        29.93S

$$

MDZ501>502-301100-
WESTERN MARYLAND

CITY           SKY/WX    TMP DP  RH WIND       PRES   REMARKS
OAKLAND*       CLOUDY    68 N/A N/A SW6       30.05R FOG
CUMBERLAND*    CLOUDY    72  72 100 CALM      29.97R VSB 1/2

$$

VAZ025>031-301100-
SHENANDOAH VALLEY

CITY           SKY/WX    TMP DP  RH WIND       PRES   REMARKS
WINCHESTER*    MOCLDY    77  73  88 SW5       29.92S
FRONT ROYAL*   PTSUNNY   75  72  88 S3        29.92R
LURAY*         FAIR      77  75  94 SW3       29.95R FOG
NEW MARKET*    FAIR      72  72  98 CALM      29.93S
STAUNTON*      CLEAR     73  71  93 CALM      29.98S FOG
WAYNESBORO*    PTSUNNY   70  70  99 CALM      29.98S

$$

WVZ021-048>050-054>055-301100-
EASTERN WEST VIRGINIA PANHANDLE

CITY           SKY/WX    TMP DP  RH WIND       PRES   REMARKS
MARTINSBURG    MOCLDY    74  72  93 SW3       29.91S FOG
PETERSBURG*    PTCLDY   N/A N/A N/A CALM      29.96R FOG

$$

VAZ036>039-050-301100-
CENTRAL FOOTHILLS

CITY           SKY/WX    TMP DP  RH WIND       PRES   REMARKS
CHARLOTTESVILL CLEAR     74  72  93 S7        29.94R
CULPEPER*      PTCLDY    74  72  93 S3        29.93S
ORANGE*        CLEAR     73  72  94 CALM      29.95S
GORDONSVILLE*  FAIR      72  72 100 S5        29.94R
WARRENTON*     FAIR      75  74  98 S3        29.92R

$$

VAZ055>057-301100-
NORTH AND CENTRAL PIEDMONT

CITY           SKY/WX    TMP DP  RH WIND       PRES   REMARKS
FREDERICKSBRG* CLEAR     76  76 100 S3        29.92S
STAFFORD*      CLEAR     73  71  92 S3        29.97R

$$

NCZ024-NYZ072-PAZ021-071-VAZ022-071-301100-
OTHER REGIONAL OBSERVATIONS

CITY           SKY/WX    TMP DP  RH WIND       PRES   REMARKS
NEW YORK CITY  PTCLDY    79  71  76 VRB3      29.93S
PHILADELPHIA   MOCLDY    78  72  81 S9        29.92S
PITTSBURGH     CLOUDY    77  64  64 NW14G23   29.95R
ROANOKE        MOCLDY    73  71  93 W3        29.99S
RICHMOND       PTCLDY    74  70  87 CALM      29.95S
RALEIGH        PTCLDY    74  70  87 CALM      29.96F

$$

ANZ530>537-301100-
MARINE OBSERVATIONS

STATION/POSITION TIME  TEMP    WIND        PRES
                       AIR SEA DIR/SP/G
                 (UTC) (F)     (DEG/KT/KT) (MB)
THOMAS PT LIGHT  NOT AVBL
BALT KEY BRIDGE  0900   77                   N/A
COVE POINT       0900   77                   N/A
LEWISETTA        0900   77 84                N/A
SOLOMONS ISLAND  0900      83                N/A

$$



USA.gov is the U.S. government's official web portal to all federal, state and local government web resources and services.